Location: Unspecified
(0.0000°N, 0.0000°E)
Time: 21:37:11
(UTC+00:00)

Vanguard 1 Rocket - All Passes

Search period start: 17 September 2014 00:00
Search period end: 27 September 2014 00:00
Orbit: 653 x 4228 km, 34.3° (Epoch: 13 September)

Date Brightness Start Highest point End Pass type
(mag) Time Alt. Az. Time Alt. Az. Time Alt. Az.
17 Sep - 00:18:20 10° SW 00:29:36 16° SSW 00:38:23 10° SSE visible
17 Sep - 03:01:26 10° SSW 03:05:08 12° S 03:08:15 10° SSE visible
17 Sep - 05:27:54 10° SSW 05:34:43 32° SSE 05:39:13 10° E visible
17 Sep - 07:55:54 10° W 07:59:51 24° NW 08:03:26 10° NNE daylight
17 Sep - 15:19:48 10° NNW 15:31:05 28° NE 15:48:26 10° E daylight
17 Sep - 17:43:53 10° NW 18:02:12 76° NE 18:28:50 10° ESE visible
17 Sep - 20:13:37 10° WNW 20:36:19 52° SW 20:59:58 10° SE visible
17 Sep - 22:55:28 10° WSW 23:13:19 23° SSW 23:27:23 10° SSE visible
18 Sep - 01:45:31 10° SSW 01:50:58 12° S 01:55:27 10° SSE visible
18 Sep - 04:16:05 10° SSW 04:23:04 21° SSE 04:27:48 10° ESE visible
18 Sep - 06:43:27 10° WSW 06:49:40 67° NW 06:54:04 10° NE daylight
18 Sep - 14:11:42 10° N 14:17:53 15° NE 14:25:58 10° ENE daylight
18 Sep - 16:33:06 10° NW 16:48:13 54° NE 17:12:38 10° ESE daylight
18 Sep - 18:59:55 10° WNW 19:20:43 70° SW 19:46:53 10° SE visible
18 Sep - 21:35:26 10° W 21:56:49 32° SSW 22:15:45 10° SSE visible
19 Sep - 00:25:05 10° SW 00:35:27 15° S 00:43:33 10° SSE visible
19 Sep - 03:03:23 10° SSW 03:10:26 16° SSE 03:15:32 10° SE visible
19 Sep - 05:31:18 10° SW 05:39:10 53° SSE 05:43:59 10° ENE visible
19 Sep - 08:01:39 10° WNW 08:04:00 13° NW 08:06:11 10° N daylight
19 Sep - 15:23:14 10° NNW 15:35:03 35° NE 15:54:19 10° E daylight
19 Sep - 17:47:47 10° NW 18:05:46 89° NE 18:32:38 10° SE visible
19 Sep - 20:18:39 10° W 20:40:30 44° SSW 21:03:26 10° SE visible
19 Sep - 23:02:41 10° WSW 23:18:53 20° SSW 23:31:44 10° SSE visible
20 Sep - 01:48:43 10° SSW 01:56:37 15° S 02:02:34 10° SE visible
20 Sep - 04:18:58 10° SSW 04:27:51 31° SSE 04:33:14 10° E visible
20 Sep - 06:47:54 10° WSW 06:53:42 38° NW 06:57:54 10° NNE daylight
20 Sep - 14:14:34 10° N 14:22:20 19° NE 14:33:32 10° ENE daylight
20 Sep - 16:36:48 10° NW 16:51:47 65° NE 17:16:58 10° ESE daylight
20 Sep - 19:04:22 10° WNW 19:24:37 59° SW 19:50:19 10° SE visible
20 Sep - 21:41:50 10° WSW 22:01:52 27° SSW 22:19:36 10° SSE visible
21 Sep - 00:30:42 10° SW 00:41:23 15° S 00:49:32 10° SSE visible
21 Sep - 03:05:59 10° SSW 03:15:33 23° SSE 03:21:40 10° ESE visible
21 Sep - 05:35:02 10° SW 05:43:26 87° SE 05:48:22 10° NE daylight
21 Sep - 15:26:45 10° NNW 15:38:47 43° NE 15:59:34 10° ESE daylight
21 Sep - 17:51:52 10° WNW 18:09:29 78° SW 18:36:13 10° SE visible
21 Sep - 20:24:06 10° W 20:45:03 37° SSW 21:06:59 10° SSE visible
21 Sep - 23:09:41 10° SW 23:24:47 18° S 23:36:40 10° SSE visible
22 Sep - 01:51:43 10° SSW 02:02:06 19° S 02:09:12 10° SE visible
22 Sep - 04:22:10 10° SW 04:32:27 47° SSE 04:38:09 10° ENE visible
22 Sep - 06:52:53 10° W 06:57:39 22° NW 07:01:19 10° N daylight
22 Sep - 14:17:43 10° N 14:26:26 25° NE 14:40:10 10° E daylight
22 Sep - 16:40:39 10° NW 16:55:23 79° NE 17:20:56 10° SE daylight
22 Sep - 19:09:09 10° WNW 19:28:47 49° SSW 19:53:43 10° SE visible
22 Sep - 21:48:37 10° WSW 22:07:22 24° SSW 22:23:49 10° SSE visible
23 Sep - 00:35:15 10° SSW 00:47:15 17° S 00:55:57 10° SE visible
23 Sep - 03:08:52 10° SW 03:20:28 31° SSE 03:27:10 10° E visible
23 Sep - 05:39:08 10° WSW 05:47:29 58° NW 05:52:26 10° NE daylight
23 Sep - 13:11:42 10° NNE 13:14:15 11° NE 13:17:08 10° NE daylight
23 Sep - 15:30:23 10° NNW 15:42:24 54° NE 16:04:16 10° ESE daylight
23 Sep - 17:56:12 10° WNW 18:13:23 66° SW 18:39:39 10° SE visible
23 Sep - 20:30:02 10° W 20:50:00 31° SSW 21:10:43 10° SSE visible
23 Sep - 23:16:01 10° SW 23:30:50 18° S 23:42:18 10° SE visible
24 Sep - 01:54:42 10° SSW 02:07:22 24° SSE 02:15:17 10° ESE visible
24 Sep - 04:25:39 10° SW 04:36:49 70° SE 04:42:41 10° ENE visible
24 Sep - 06:58:49 10° WNW 07:01:37 13° NW 07:04:01 10° NNW daylight
24 Sep - 14:21:03 10° NNW 14:30:18 32° NE 14:46:01 10° E daylight
24 Sep - 16:44:40 10° NW 16:59:05 87° SW 17:24:37 10° SE daylight
24 Sep - 19:14:18 10° W 19:33:17 41° SSW 19:57:08 10° SE visible
24 Sep - 21:55:31 10° SW 22:13:15 21° SSW 22:28:34 10° SSE visible
25 Sep - 00:39:04 10° SSW 00:52:55 21° S 01:02:21 10° SE visible
25 Sep - 03:11:57 10° SW 03:25:10 44° SSE 03:32:13 10° E visible
25 Sep - 05:43:37 10° WSW 05:51:23 37° NW 05:56:13 10° NNE daylight
25 Sep - 13:13:15 10° N 13:18:33 15° NE 13:25:43 10° ENE daylight
25 Sep - 15:34:10 10° NW 15:46:00 67° NE 16:08:31 10° ESE daylight
25 Sep - 18:00:48 10° WNW 18:17:34 54° SSW 18:42:58 10° SE visible
25 Sep - 20:36:23 10° WSW 20:55:23 27° SSW 21:14:45 10° SSE visible
25 Sep - 23:21:25 10° SW 23:36:53 20° S 23:48:27 10° SE visible
26 Sep - 01:57:41 10° SW 02:12:24 32° SSE 02:20:53 10° E visible
26 Sep - 04:29:25 10° SW 04:40:57 80° NW 04:46:56 10° NE visible
26 Sep - 14:24:33 10° NNW 14:33:59 41° NE 14:51:12 10° ESE daylight
26 Sep - 16:48:53 10° WNW 17:03:00 73° SW 17:28:05 10° SE daylight
26 Sep - 19:19:52 10° W 19:38:09 34° SSW 20:00:41 10° SE visible
26 Sep - 22:02:07 10° SW 22:19:22 21° S 22:33:57 10° SE visible
